Preview of NWS' New Version of Forecast
This preview is not operational and should not be used for support decisions.

Regional Weather Roundup (RWR)

Issued by National Weather Service (NWS)

                            
000
ASUS43 KDTX 201510
RWRMI 
MICHIGAN HOURLY REGIONAL WEATHER ROUNDUP
NATIONAL WEATHER SERVICE DETROIT/PONTIAC MI
1100 AM EDT THU JUN 20 2019

NOTE: "FAIR" INDICATES FEW OR NO CLOUDS BELOW 12,000 FEET WITH NO
SIGNIFICANT WEATHER AND/OR OBSTRUCTION TO VISIBILITY.

MIZ047>049-052>055-059>063-066>070-074>076-081>083-201600-
SOUTHEAST LOWER MICHIGAN
  
CITY           SKY/WX    TMP DP  RH WIND       PRES   REMARKS
ADRIAN         CLOUDY    63  60  90 E10       29.59F                  
ALMA           RAIN      60  59  94 N8        29.68S                  
ANN ARBOR      CLOUDY    64  62  93 NE7       29.59F FOG              
BAD AXE        DRIZZLE   59  57  95 NE8       29.66S                  
CARO           DRIZZLE   59  58  97 N5        29.65S                  
DETROIT CITY   LGT RAIN  64  62  93 N7        29.61S FOG              
DETROIT        LGT RAIN  64  62  93 NE12      29.59F FOG              
FLINT          LGT RAIN  62  59  90 NE8       29.63F FOG              
GROSSE ILE     CLOUDY    63  62  96 NE7       29.58F FOG              
HILLSDALE      LGT RAIN  62  59  92 NE8       29.58F                  
HOWELL         RAIN      62  59  91 N3        29.63S                  

CITY           SKY/WX    TMP DP  RH WIND       PRES   REMARKS
JACKSON        LGT RAIN  62  61  96 N7        29.60F FOG              
LAMBERTVILLE   CLOUDY    64  64  99 E6        29.58S FOG              
LANSING        LGT RAIN  60  59  96 N9        29.64S FOG              
LAPEER         LGT RAIN  62  61  94 NE3       29.64S                  
MASON          RAIN      60  59  96 NE7       29.63S                  
MONROE         CLOUDY    65  64  97 NE8       29.58F                  
MT. CLEMENS    LGT RAIN  63  63 100 N7        29.60F                  
PONTIAC        LGT RAIN  62  61  96 NE6       29.61S FOG              
PORT HOPE        N/A     54  53  97 N8        29.66R                  
PORT HURON     CLOUDY    64  59  82 N6        29.63R                  
TRI CITIES     LGT RAIN  60  60 100 NE14      29.68R FOG              
MIDLAND        RAIN      60  58  95 N7        29.68R                  
TROY           DRIZZLE   63  60  90 NE8       29.63F                  
SAGINAW HB     LGT RAIN  61  59  94 N9        29.66S                  
$$
MIZ043>046-050>051-056>058-064>065-071>073-077>080-201600-
SOUTHWEST LOWER MICHIGAN
  
CITY           SKY/WX    TMP DP  RH WIND       PRES   REMARKS
BATTLE CREEK   LGT RAIN  63  61  93 NE9       29.62S                  
BENTON HARBOR  CLOUDY    64  61  90 NE6       29.61F                  
BIG RAPIDS     LGT RAIN  60  58  94 N6        29.70S                  
COLDWATER      LGT RAIN  62  62 100 N9        29.59S                  
FREMONT        CLOUDY    63  60  92 NE7       29.68F                  
HOLLAND        CLOUDY    63  32  31 NE6       29.65S                  
GRAND RAPIDS   RAIN      60  58  92 NE10      29.66R FOG              
IONIA          LGT RAIN  59  58  95 NE9       29.65S                  
KALAMAZOO      LGT RAIN  63  60  90 N9        29.62S                  
LUDINGTON      FAIR      64  58  80 NE6       29.70F                  
MARSHALL       LGT RAIN  62  62 100 CALM      29.61S                  
MOUNT PLEASANT RAIN      60  60  99 N7        29.68S                  
MUSKEGON       LGT RAIN  63  59  87 NE8       29.67F FOG              
SOUTH HAVEN    CLOUDY    64  62  96 NE9       29.63S                  
$$
MIZ016>042-201600-
NORTHERN LOWER MICHIGAN
  
CITY           SKY/WX    TMP DP  RH WIND       PRES   REMARKS
ALPENA         FAIR      62  50  64 N13       29.73S                  
BEAVER ISLAND  FAIR      65  48  52 N9        29.78S                  
BELLAIRE       FAIR      66  53  63 N9        29.73S                  
CADILLAC       FAIR      67  56  68 NE9       29.71S                  
CHARLEVOIX     FAIR      65  51  59 NE9       29.78S                  
FRANKFORT      FAIR      67  53  61 NE7       29.73F                  
GAYLORD        FAIR      61  50  67 NE13      29.74S                  
GRAYLING       PTSUNNY   63  55  73 NE8       29.72S                  
HARBOR SPRINGS FAIR      64  49  56 NE7       29.76S                  
HOUGHTON LAKE  FAIR      60  52  74 NE13      29.72R                  
MANISTEE       FAIR      66  57  72 NE10      29.70F                  
OSCODA         PTSUNNY   58  51  77 NE14      29.70R                  
PELLSTON       FAIR      65  49  56 MISG      29.77S                  
ROGERS CITY    FAIR      56  50  80 CALM      29.76S                  
TRAVERSE CITY  CLOUDY    64  55  72 N8        29.72S                  
$$
MIZ007>008-015-201600-
EASTERN UPPER MICHIGAN
  
CITY           SKY/WX    TMP DP  RH WIND       PRES   REMARKS
KINROSS        FAIR      66  44  45 NE16G22   29.78S                  
MACKINAC ISLAN FAIR      67  49  53 NE9       29.77S                  
NEWBERRY       FAIR      66  43  42 NE12      29.79F                  
S. S. MARIE    FAIR      69  47  45 VRB6      29.76F                  
MUNISING         N/A     54  45  71 N8        29.83S                  
$$
MIZ004>006-011>014-085-201600-
CENTRAL UPPER MICHIGAN
  
CITY           SKY/WX    TMP DP  RH WIND       PRES   REMARKS
MANISTIQUE     FAIR      68  46  44 NE10G18   29.78S                  
ESCANABA       FAIR      67  50  54 NE12      29.79S                  
MENOMINEE      FAIR      65  51  60 E9        29.78F                  
SAWYER-GWINN   SUNNY     61  46  59 NE10      29.83S                  
$$
MIZ001>003-009>011-084-201600-
WESTERN UPPER MICHIGAN
  
CITY           SKY/WX    TMP DP  RH WIND       PRES   REMARKS
IRON MOUNTAIN  FAIR      66  49  54 NE7       29.80F                  
HOUGHTON       FAIR      64  47  53 E3        29.85F                  
COPPER HARBOR    N/A     50  46  86 N3        29.86S                  
IRONWOOD       FAIR      60  48  64 CALM      29.86S                  
$$

ABBREVIATIONS USED IN REMARKS
   TC - TEMPERATURE IN CELSIUS
  WCI - WIND CHILL INDEX
   HX - HEAT INDEX
  VSB - VISIBILITY